Temperature
16 16 15 15 15 15 15 15 15 15 14 14 14 14 14 14 14 14 14 14 14 14 14 14 14 13 13 13 13 13 13 13 13 12 12 12 12 11 12 11 11 11 11
16 16 15 15 15 15 15 15 15 15 14 14 14 14 14 14 14 14 14 14 14 14 14 13 13 13 13 13 13 12 12 12 12 12 12 12 11 11 11 11 11 11 10
16 15 15 15 15 15 15 15 15 15 14 14 14 14 14 14 14 14 14 14 14 14 13 13 13 13 13 13 13 12 12 12 12 12 12 11 11 11 11 11 11 10 10
15 15 15 15 15 15 15 15 15 15 14 14 14 14 14 14 14 14 14 14 13 13 13 13 13 13 13 12 13 12 12 12 12 12 11 11 11 11 11 11 10 10 10
15 15 15 15 15 15 15 15 15 14 14 14 14 14 14 14 14 14 13 13 13 13 13 13 13 13 13 12 12 12 12 12 12 11 11 11 11 10 10 10 10 10 10
15 15 15 15 15 15 15 15 14 14 14 14 14 14 14 14 14 14 13 13 13 13 13 13 13 12 13 12 12 12 12 12 11 11 11 11 11 10 10 10 10 9 9
15 15 15 15 15 15 15 14 14 14 14 14 14 13 13 13 13 13 13 13 13 13 13 12 12 12 12 12 12 12 12 12 11 11 11 11 10 10 10 10 9 9 9
15 15 15 14 15 15 14 14 14 14 14 14 13 13 13 13 13 13 13 13 12 12 12 12 12 12 12 12 11 11 11 11 11 11 10 10 10 10 10 9 9 9 8
14 14 14 14 14 14 14 14 14 14 14 14 13 13 13 13 13 13 13 12 12 12 12 12 12 12 12 11 11 11 11 11 11 10 10 10 10 10 10 9 9 8 8
14 14 14 14 14 14 14 14 14 14 13 13 13 13 13 12 13 12 12 12 12 12 12 12 12 11 11 11 11 11 10 10 10 10 10 10 9 9 9 9 8 8 8
14 14 14 14 14 13 13 13 13 13 13 13 12 12 12 12 12 12 12 12 11 11 11 11 11 11 11 11 11 10 10 10 10 9 9 9 9 9 9 8 8 7 7
13 13 13 13 13 13 13 13 13 13 12 12 12 12 12 12 12 12 12 12 11 11 11 11 11 11 11 11 11 10 10 10 9 9 9 9 8 8 8 8 8 7 7
13 13 13 13 13 13 12 12 12 12 12 12 11 11 11 12 12 12 11 11 11 11 11 11 11 11 10 10 10 10 10 9 9 9 8 8 8 8 7 7 7 7 7
13 13 13 12 12 12 12 12 12 11 11 11 11 11 11 11 11 11 11 11 11 11 10 10 10 10 10 10 10 9 9 9 8 8 8 8 7 7 7 7 7 7 6
12 12 12 12 12 12 11 11 11 11 11 11 11 11 11 11 11 11 11 11 11 10 10 10 10 10 9 9 9 9 9 8 8 8 8 7 7 7 7 7 6 6 6
12 12 12 12 11 11 11 11 11 11 11 10 11 10 10 11 11 11 11 11 10 10 10 9 9 9 9 9 9 8 8 8 8 7 7 7 7 7 6 6 6 6 5
12 11 11 11 11 11 10 10 10 10 10 10 10 10 10 10 10 10 10 10 10 10 9 9 9 9 9 8 8 8 7 7 7 7 7 7 7 6 6 6 6 5 5
11 11 11 11 10 10 10 10 10 9 9 10 10 10 10 10 10 10 10 9 9 9 9 9 8 8 8 8 8 7 7 7 7 7 6 6 6 6 6 5 5 5 5
10 10 10 10 10 9 9 9 9 9 9 9 9 9 9 9 9 9 9 9 9 9 9 8 8 8 8 8 7 7 7 7 6 6 6 6 6 6 5 5 5 5 4
10 10 10 10 9 9 9 9 9 8 8 8 8 8 9 8 8 8 8 8 8 8 8 8 8 7 7 7 7 7 7 6 6 6 6 6 5 5 5 5 4 4 4
9 9 9 9 9 9 8 8 8 8 8 8 8 8 8 8 8 8 8 8 8 8 8 8 7 7 7 7 7 7 6 6 6 6 5 5 5 5 5 4 4 4 4
9 9 9 8 8 8 8 8 8 8 8 8 8 7 7 7 7 7 7 7 7 7 7 7 7 7 7 7 6 6 6 6 6 5 5 5 5 4 4 4 4 3 3
8 8 8 8 8 8 8 7 7 7 7 7 7 7 7 7 7 7 7 7 7 7 7 7 7 6 6 6 6 6 5 5 5 5 5 4 4 4 4 4 3 3 3
8 8 8 8 7 7 7 7 7 7 7 7 7 7 7 7 6 6 6 6 6 6 6 6 6 6 6 6 5 5 5 5 5 5 4 4 4 4 4 3 3 3 3
7 7 7 7 7 7 7 7 6 6 6 6 6 6 6 6 6 6 6 6 6 6 6 6 6 6 5 5 5 5 5 5 4 4 4 3 3 3 3 3 3 3 2
7 7 6 6 6 6 6 6 6 6 5 5 5 5 5 5 5 5 5 5 5 5 5 5 5 5 5 5 5 4 4 4 4 4 3 3 3 3 3 3 3 2 2
Wind_Speed
5 4 4 4 4 4 4 3 3 3 3 3 2 2 2 2 2 2 2 2 2 2 2 2 2 2 2 1 1 1 1 1 1 2 2 2 2 2 2 2 2 2 4
5 5 4 4 5 5 4 4 4 4 3 3 3 2 2 2 2 3 3 2 2 2 2 2 3 3 2 1 1 1 1 1 1 2 2 1 1 1 1 1 1 1 2
5 5 5 5 5 5 5 4 4 4 4 3 3 3 3 3 3 3 3 2 2 2 2 2 2 3 3 2 1 1 1 1 1 1 2 1 1 0 0 1 1 1 0
5 5 5 5 5 5 5 4 4 4 4 4 4 3 3 3 3 3 3 3 2 2 2 2 2 2 2 2 2 1 1 1 1 1 1 1 1 0 1 1 1 1 1
5 5 4 4 4 5 5 5 4 4 4 4 4 4 3 3 3 3 3 3 3 2 2 2 2 2 3 1 0 1 2 2 2 1 1 1 1 1 1 2 2 2 2
5 5 4 4 4 4 4 4 4 4 4 4 4 4 4 3 3 2 3 3 3 3 3 3 3 3 3 3 1 1 0 2 2 2 2 2 2 2 2 2 2 2 3
5 5 5 5 5 4 4 4 4 4 4 5 5 4 4 4 6 5 4 3 3 3 3 3 3 2 3 3 4 5 3 2 2 3 3 3 3 2 3 3 3 4 4
4 4 4 5 5 4 4 4 4 4 4 4 4 5 4 4 6 5 5 5 4 3 3 3 3 3 2 2 2 3 2 2 3 4 3 3 2 2 3 4 4 4 3
4 4 5 5 5 5 5 4 4 4 4 4 4 4 5 5 6 5 5 4 4 4 3 3 3 3 3 2 3 3 3 2 2 1 2 2 2 1 2 2 2 3 4
4 4 4 5 5 5 5 4 4 4 4 3 3 3 4 4 6 6 6 4 4 4 3 3 2 2 3 3 4 4 4 3 2 2 2 2 3 3 4 4 3 4 4
4 4 4 4 5 4 4 3 4 4 4 4 4 3 3 3 6 6 5 4 4 4 3 3 2 4 4 3 4 3 2 2 2 2 2 1 2 2 3 4 4 4 5
4 4 4 4 4 4 4 4 4 4 4 4 4 3 3 3 3 5 5 4 3 4 3 3 2 5 4 3 3 1 1 1 2 2 2 2 2 2 2 3 3 4 5
4 4 4 4 4 4 4 4 4 4 4 4 4 4 3 3 3 5 6 5 3 3 2 2 2 4 4 4 3 3 3 3 3 3 3 3 2 2 2 2 3 3 4
5 4 4 4 3 3 3 4 4 4 4 4 4 4 4 3 3 3 3 4 5 4 3 3 4 4 3 2 2 3 3 3 3 3 3 3 2 2 2 2 3 3 4
4 4 4 4 3 3 3 2 4 4 3 4 4 4 4 4 3 2 3 3 3 4 4 3 3 3 3 3 3 3 3 3 3 3 3 3 3 3 3 3 4 4 5
4 4 3 3 3 3 3 2 1 1 1 1 1 3 3 2 2 4 4 3 3 4 4 4 4 4 4 4 4 4 4 4 4 4 4 4 4 4 5 4 4 5 6
4 4 3 3 4 4 4 3 2 1 1 2 3 4 4 3 3 5 5 5 5 6 5 5 5 5 5 4 4 5 5 5 4 4 5 5 5 5 5 5 5 5 6
4 3 3 4 4 4 4 4 4 4 3 3 3 5 6 5 5 5 5 5 4 5 5 6 5 5 5 5 5 5 5 5 5 5 5 6 6 5 6 6 6 6 6
4 3 3 3 4 4 4 5 5 5 4 4 3 3 6 6 6 6 7 5 5 5 6 6 6 6 5 5 5 5 5 5 5 5 6 6 6 5 6 6 6 6 7
3 3 3 4 4 4 5 5 5 5 5 5 5 4 4 4 4 5 6 6 6 6 6 6 6 6 6 6 6 6 6 6 6 6 6 6 6 6 7 7 6 6 6
3 4 5 4 4 5 5 5 6 6 6 5 5 5 5 5 6 6 6 6 7 7 6 6 6 6 6 6 6 7 8 7 6 6 6 6 6 6 6 6 6 7 6
4 4 5 5 5 5 5 5 5 6 6 7 5 5 7 6 6 6 6 7 7 7 7 6 6 6 6 6 7 7 8 8 7 7 7 7 6 6 6 6 6 7 7
4 4 4 5 4 4 5 5 5 6 6 6 5 5 5 6 6 6 7 6 6 6 7 7 7 7 7 7 7 7 7 8 7 7 7 7 7 7 7 7 8 8 7
4 5 5 4 4 5 5 5 5 6 6 6 6 6 6 6 6 7 7 6 6 6 7 7 7 9 10 8 8 9 9 9 8 8 9 8 8 8 7 8 8 9 8
4 4 5 5 5 5 5 5 6 6 6 6 5 5 6 6 6 7 7 7 7 7 8 8 7 8 10 11 10 10 10 10 10 9 9 8 9 9 9 9 8 8 8
4 4 5 4 5 5 5 5 5 6 6 6 6 6 6 6 6 7 7 7 7 7 8 8 9 10 10 10 12 11 10 11 11 12 10 8 9 8 8 8 9 8 8
Wind_Direction
196 193 191 192 191 189 187 182 185 179 175 182 186 181 170 171 171 165 174 164 166 145 132 127 124 106 113 117 130 129 52 39 119 104 110 105 109 94 91 67 84 92 91
193 193 192 188 189 190 188 188 188 182 180 181 175 173 166 178 181 168 164 167 161 149 139 136 134 127 123 113 123 126 95 32 137 138 140 127 112 74 56 40 53 54 71
189 193 194 191 191 193 191 187 190 189 185 184 184 184 177 178 178 174 172 167 154 148 149 142 133 135 135 123 138 135 125 112 107 161 139 119 142 78 36 9 339 17 7
181 188 193 192 192 196 191 188 194 192 191 191 189 189 189 188 188 187 175 173 167 155 148 140 139 147 146 148 155 152 144 140 139 152 155 163 164 201 268 304 306 293 286
181 188 194 190 183 189 188 194 195 192 197 195 195 195 194 196 193 191 185 184 177 171 159 154 131 100 60 61 101 166 164 171 174 182 194 208 208 217 256 272 285 290 278
185 189 185 182 177 183 187 190 191 195 199 195 200 200 196 188 132 163 219 185 183 184 182 172 155 159 148 151 119 59 21 209 210 211 230 242 251 246 258 262 270 279 288
189 188 185 185 180 182 182 182 187 193 193 197 200 199 198 168 147 170 211 210 195 193 194 182 171 174 194 190 172 179 189 230 271 264 263 269 266 261 256 263 270 280 287
188 186 183 184 182 180 181 188 198 196 190 196 198 201 198 173 157 174 195 213 205 197 202 202 192 193 186 211 201 201 207 204 224 242 266 282 294 286 265 269 277 277 269
192 194 187 186 183 183 185 190 194 192 190 194 195 197 196 181 162 180 200 203 208 205 203 206 207 207 125 183 224 225 223 216 155 210 347 2 29 2 292 256 256 256 270
198 198 191 187 183 189 194 192 186 189 191 191 190 197 195 194 157 177 211 207 210 210 207 197 168 218 139 189 224 230 234 233 222 203 206 213 223 210 224 240 250 263 277
188 184 184 182 184 185 186 189 188 186 186 193 190 195 199 195 159 164 202 219 216 218 216 212 186 151 168 198 238 245 263 269 234 240 237 224 222 229 231 248 262 270 272
177 178 182 181 181 182 181 188 191 187 191 197 202 200 203 190 171 165 181 222 251 222 222 222 182 150 177 207 228 194 118 213 227 225 234 240 245 251 254 258 266 272 277
180 182 184 182 183 189 190 190 193 196 203 207 210 214 209 195 169 160 180 195 215 224 216 127 137 167 187 201 200 189 192 217 223 229 242 248 251 260 260 264 266 274 275
185 187 187 184 185 189 197 202 202 206 210 213 216 221 219 206 200 188 194 195 192 210 210 157 162 182 206 216 188 198 220 233 240 243 253 264 262 254 252 256 261 261 269
190 190 191 188 189 194 197 212 217 217 222 221 223 226 225 224 210 197 212 212 213 210 206 202 205 203 210 215 222 223 226 229 241 252 256 255 249 249 252 252 256 260 265
198 196 195 195 195 198 194 186 54 239 149 201 256 244 240 238 169 182 202 204 192 188 204 216 220 223 229 231 232 235 236 239 242 246 252 254 253 253 257 253 251 255 263
206 206 204 204 203 205 204 204 210 214 182 208 214 219 225 207 186 187 193 193 192 190 212 227 231 231 233 237 240 244 247 247 245 246 251 253 254 256 257 257 254 258 263
208 208 211 214 214 212 213 216 220 223 228 233 215 207 209 208 200 195 192 188 203 205 224 234 238 238 237 239 242 246 249 249 248 251 254 256 255 256 259 260 258 260 264
209 213 220 223 220 217 217 219 223 229 233 233 229 208 200 204 204 207 198 213 220 220 225 234 240 241 240 240 242 244 245 247 251 252 255 257 256 258 263 266 264 262 262
214 205 214 223 223 223 222 223 225 229 232 235 234 229 203 203 219 216 215 225 230 231 230 235 239 243 243 243 242 242 244 245 247 250 255 257 256 253 257 262 266 265 261
216 211 206 221 227 228 229 230 230 232 234 238 240 233 218 224 228 228 226 228 232 236 237 237 240 241 242 244 244 242 244 247 246 248 252 255 255 256 256 256 257 259 262
222 221 223 227 230 232 235 237 238 238 237 239 242 234 217 230 235 235 234 235 237 239 240 240 241 242 241 242 244 246 247 249 249 248 250 252 254 254 254 253 254 257 258
224 223 229 231 232 228 232 238 241 242 243 243 242 242 235 235 236 238 239 241 241 242 241 240 242 244 244 243 244 246 249 251 252 251 250 251 251 251 251 251 251 256 256
226 224 225 228 231 231 235 240 242 243 244 245 245 244 243 242 241 242 244 247 247 245 244 243 245 247 249 250 250 248 251 256 259 258 254 253 252 252 250 250 250 251 251
230 229 229 229 232 235 238 241 242 242 244 246 248 250 250 248 249 249 248 247 248 249 249 249 249 250 251 251 254 256 257 256 256 261 260 255 254 251 250 249 248 249 248
230 231 235 235 236 238 240 243 245 245 246 249 252 255 255 255 254 254 254 251 250 251 253 252 251 253 255 256 257 257 256 253 251 253 257 254 253 251 250 249 250 248 247
Height
1545 1546 1547 1548 1549 1550 1551 1551 1552 1553 1554 1554 1555 1555 1555 1555 1555 1554 1555 1555 1555 1555 1554 1554 1554 1554 1554 1554 1554 1554 1554 1554 1554 1554 1554 1553 1553 1552 1552 1551 1550 1549 1549
1543 1544 1545 1546 1547 1548 1549 1550 1551 1552 1553 1553 1554 1554 1554 1554 1554 1554 1554 1554 1554 1554 1554 1554 1554 1554 1554 1554 1554 1554 1554 1554 1554 1554 1554 1553 1553 1552 1551 1550 1550 1549 1548
1541 1542 1543 1545 1546 1547 1548 1549 1550 1551 1551 1552 1552 1553 1553 1553 1553 1553 1553 1554 1554 1553 1553 1553 1553 1554 1553 1553 1553 1553 1553 1553 1553 1553 1553 1552 1552 1551 1550 1550 1549 1548 1547
1539 1540 1541 1543 1544 1545 1546 1547 1548 1549 1550 1550 1551 1551 1552 1552 1552 1552 1552 1552 1553 1553 1553 1553 1553 1553 1553 1553 1553 1553 1553 1552 1552 1552 1552 1551 1551 1550 1549 1549 1548 1547 1546
1537 1538 1539 1541 1542 1543 1544 1545 1546 1547 1548 1549 1549 1550 1550 1550 1551 1551 1551 1551 1551 1552 1552 1552 1552 1552 1552 1552 1552 1552 1552 1552 1551 1551 1551 1550 1550 1549 1548 1547 1547 1546 1545
1535 1536 1537 1538 1540 1541 1542 1543 1544 1545 1546 1546 1547 1548 1548 1548 1548 1549 1549 1550 1550 1550 1550 1551 1550 1550 1550 1550 1550 1550 1550 1550 1550 1550 1550 1549 1549 1548 1547 1546 1545 1545 1544
1533 1534 1535 1536 1537 1539 1540 1541 1542 1543 1543 1544 1545 1545 1546 1546 1547 1547 1547 1548 1549 1549 1549 1549 1549 1549 1549 1549 1549 1549 1548 1548 1548 1548 1548 1548 1547 1546 1545 1544 1543 1543 1542
1531 1532 1533 1534 1535 1536 1537 1538 1539 1541 1541 1542 1542 1543 1544 1544 1544 1545 1546 1546 1547 1547 1547 1547 1547 1547 1547 1547 1548 1547 1547 1546 1546 1546 1546 1545 1544 1544 1543 1542 1541 1540 1539
1528 1529 1530 1531 1532 1534 1535 1536 1537 1538 1538 1539 1540 1541 1541 1542 1542 1543 1544 1544 1545 1545 1545 1545 1545 1546 1545 1545 1545 1545 1545 1544 1544 1543 1542 1542 1541 1540 1539 1539 1538 1537 1536
1525 1526 1528 1529 1530 1531 1532 1533 1534 1535 1536 1536 1537 1538 1539 1539 1540 1540 1541 1542 1542 1543 1543 1543 1543 1543 1543 1543 1543 1543 1542 1542 1541 1541 1540 1539 1538 1537 1536 1536 1535 1534 1533
1523 1524 1525 1526 1527 1528 1529 1530 1531 1532 1533 1534 1535 1535 1536 1537 1537 1538 1538 1539 1540 1540 1540 1540 1540 1540 1540 1540 1540 1540 1539 1539 1538 1538 1537 1536 1535 1534 1533 1532 1532 1531 1531
1520 1521 1522 1523 1524 1526 1526 1527 1528 1529 1530 1531 1532 1533 1533 1534 1534 1535 1536 1536 1537 1537 1537 1538 1537 1537 1537 1537 1537 1536 1536 1536 1535 1535 1534 1533 1532 1531 1530 1529 1528 1527 1526
1518 1519 1520 1521 1522 1523 1524 1525 1525 1526 1527 1528 1529 1530 1531 1531 1531 1532 1533 1533 1534 1534 1534 1534 1535 1535 1534 1534 1534 1533 1533 1532 1532 1531 1531 1530 1529 1528 1527 1526 1525 1523 1522
1515 1516 1517 1518 1519 1519 1520 1521 1522 1523 1524 1525 1526 1527 1528 1528 1529 1529 1530 1530 1531 1531 1531 1531 1531 1531 1531 1531 1531 1530 1530 1529 1528 1528 1527 1526 1525 1524 1523 1522 1521 1520 1518
1512 1513 1514 1515 1515 1516 1517 1518 1518 1520 1520 1522 1522 1523 1524 1524 1525 1526 1526 1527 1527 1527 1528 1528 1528 1528 1528 1528 1527 1527 1526 1526 1525 1524 1524 1523 1521 1520 1519 1518 1517 1516 1514
1509 1510 1510 1511 1512 1512 1513 1514 1515 1516 1516 1517 1518 1519 1520 1521 1521 1522 1522 1523 1524 1524 1525 1524 1524 1524 1524 1523 1523 1523 1522 1522 1521 1520 1520 1518 1517 1516 1515 1514 1513 1512 1510
1505 1506 1507 1507 1508 1509 1510 1510 1510 1511 1512 1513 1514 1515 1515 1516 1517 1518 1518 1519 1519 1520 1520 1520 1520 1520 1520 1519 1519 1519 1518 1518 1517 1516 1515 1514 1513 1512 1511 1510 1508 1507 1505
1501 1502 1503 1503 1504 1505 1506 1506 1507 1507 1508 1508 1509 1510 1511 1511 1512 1513 1514 1514 1514 1514 1515 1515 1515 1515 1515 1515 1514 1514 1514 1513 1512 1511 1511 1510 1508 1507 1506 1505 1503 1502 1501
1497 1498 1499 1500 1500 1501 1502 1502 1503 1504 1504 1504 1504 1505 1506 1506 1507 1508 1508 1509 1509 1509 1509 1510 1510 1510 1510 1510 1509 1509 1508 1508 1507 1506 1506 1505 1504 1502 1501 1500 1498 1496 1495
1493 1494 1495 1496 1496 1497 1497 1498 1498 1499 1499 1500 1500 1501 1501 1502 1502 1502 1503 1503 1504 1504 1504 1504 1505 1505 1504 1504 1504 1503 1503 1502 1501 1501 1500 1499 1498 1497 1496 1494 1493 1491 1490
1489 1490 1490 1491 1492 1492 1493 1493 1494 1494 1495 1495 1495 1496 1497 1497 1497 1497 1498 1498 1498 1499 1499 1499 1499 1499 1498 1498 1498 1497 1497 1496 1495 1495 1494 1493 1492 1491 1490 1489 1487 1486 1485
1485 1485 1486 1487 1487 1488 1488 1489 1489 1489 1490 1490 1490 1491 1491 1491 1491 1492 1492 1492 1493 1493 1493 1493 1493 1493 1492 1492 1491 1491 1490 1489 1489 1488 1488 1487 1486 1485 1484 1482 1481 1480 1479
1480 1481 1482 1482 1482 1483 1483 1484 1484 1484 1485 1485 1485 1485 1485 1486 1486 1486 1486 1487 1487 1487 1487 1487 1486 1486 1486 1485 1485 1484 1483 1483 1482 1482 1481 1480 1479 1478 1477 1476 1475 1474 1473
1475 1476 1476 1477 1477 1478 1478 1478 1479 1479 1479 1480 1480 1480 1480 1480 1480 1480 1480 1481 1481 1480 1480 1480 1480 1479 1479 1478 1478 1477 1477 1476 1475 1475 1474 1473 1472 1471 1471 1469 1469 1468 1467
1471 1471 1471 1472 1472 1472 1473 1473 1473 1473 1474 1474 1474 1474 1474 1474 1474 1474 1474 1474 1474 1474 1474 1473 1473 1472 1472 1471 1471 1470 1469 1469 1468 1468 1467 1466 1465 1464 1463 1463 1462 1461 1461
1465 1466 1466 1467 1467 1467 1467 1467 1467 1468 1468 1468 1468 1468 1468 1468 1467 1468 1468 1468 1467 1467 1467 1466 1466 1465 1465 1464 1463 1463 1462 1462 1461 1461 1460 1459 1458 1457 1456 1456 1455 1455 1454